Zurück zum Katalog

ZINYUAN-3

AktivWissenschaftSSO
NORAD 45939·PAYLOAD·🇨🇳 China

Gestartet Jul 25, 2020 von Taiyuan Satellite Launch Center

Loading…

Nächste Überflüge (nächste 24 Stunden)

TLE

AktuellSource: Space-Track

Epoche: Sep 14, 2026, 15:21 UTC

1 45939U 20051A   26257.64005103  .00003108  00000-0  14182-3 0  9990
2 45939  97.5295 324.6828 0006619  50.8106 309.3716 15.21355616340948

Verfolge ZINYUAN-3 in Echtzeit mit AllMySat

Download on the App Store